Broken Bow, NE

10:00 PM CDT on May 25, 2018 (GMT -0500)
Broken Bow Municipal

Weather History for KBBW - March, 2014

Change the Weather History Date:

Tuesday, March 18, 2014

  Actual Average Record
Temperature  
Mean Temperature 40 °F 38 °F  
Max Temperature 50 °F 52 °F 83 °F (1921)
Min Temperature 30 °F 25 °F -8 °F (1923)
Degree Days  
Heating Degree Days 25 26  
Month to date heating degree days 550 533  
Cooling Degree Days 0 0  
Month to date cooling degree days 0 0  
Year to date cooling degree days 0 0  
Moisture  
Dew Point 29 °F    
Average Humidity 70    
Maximum Humidity 100    
Minimum Humidity 39    
Precipitation  
Precipitation 0.10 in 0.04 in 1.22 in (1987)
Sea Level Pressure  
Sea Level Pressure 29.61 in    
Wind  
Wind Speed 23 mph (North)    
Max Wind Speed 38 mph    
Max Gust Speed 45 mph    
Visibility 4 miles    
Events Fog , Snow    
T = Trace of Precipitation, MM = Missing Value Source: NWS Daily Summary

Daily Weather History Graph

Daily Weather History Graph

Search for Another Location

Airport or City:

Astronomy

Mar. 18, 2014 Rise Set
Actual Time 7:45 AM CDT 7:48 PM CDT
Civil Twilight 7:17 AM CDT 8:16 PM CDT
Nautical Twilight 6:45 AM CDT 8:48 PM CDT
Astronomical Twilight 6:12 AM CDT 9:21 PM CDT
Moon 10:09 PM CDT (3/18) 8:34 AM CDT (3/18)
Length of Visible Light 12h 58m
Length of Day
12h 03m
Waning Gibbous, 96% of the Moon is Illuminated
Mar 18
Waning Gibbous
Mar 23
Last Quarter
Mar 30
New
Apr 7
First Quarter
Apr 15
Full

Hourly Weather History & Observations

Time (CDT) Temp. Windchill Dew Point Humidity Pressure Visibility Wind Dir Wind Speed Gust Speed Precip Events Conditions
12:53 AM 50.0 °F - 26.1 °F 39% 29.29 in 10.0 mi SSE 6.9 mph - N/A   Clear
1:53 AM 48.0 °F - 27.0 °F 44% 29.28 in 10.0 mi South 13.8 mph - N/A   Clear
2:53 AM 46.0 °F 43.9 °F 27.0 °F 47% 29.28 in 10.0 mi SE 4.6 mph - N/A   Scattered Clouds
3:53 AM 46.0 °F 42.5 °F 28.0 °F 50% 29.27 in 10.0 mi SSW 6.9 mph - N/A   Overcast
4:53 AM 41.0 °F 35.8 °F 28.0 °F 60% 29.31 in 10.0 mi NNW 8.1 mph - N/A   Partly Cloudy
5:53 AM 36.0 °F 23.9 °F 30.9 °F 82% 29.34 in 10.0 mi North 25.3 mph 34.5 mph N/A   Partly Cloudy
6:09 AM 36.0 °F 24.7 °F 30.9 °F 82% 29.36 in 10.0 mi North 21.9 mph 29.9 mph N/A   Mostly Cloudy
6:53 AM 35.1 °F 22.5 °F 30.9 °F 85% 29.35 in 10.0 mi North 26.5 mph 34.5 mph N/A   Overcast
7:53 AM 34.0 °F 22.4 °F 30.0 °F 85% 29.41 in 10.0 mi North 20.7 mph 28.8 mph N/A   Overcast
8:44 AM 33.1 °F 20.6 °F 28.9 °F 85% 29.44 in 7.0 mi North 23.0 mph 33.4 mph N/A   Overcast
8:53 AM 32.0 °F 19.2 °F 28.9 °F 88% 29.46 in 7.0 mi North 23.0 mph 32.2 mph N/A   Overcast
9:53 AM 32.0 °F 17.9 °F 28.9 °F 88% 29.49 in 6.0 mi North 28.8 mph 38.0 mph N/A   Overcast
10:42 AM 33.1 °F 20.1 °F 28.0 °F 82% 29.51 in 10.0 mi North 25.3 mph 33.4 mph N/A   Overcast
10:53 AM 33.1 °F 20.1 °F 28.0 °F 82% 29.53 in 10.0 mi North 25.3 mph 33.4 mph N/A   Overcast
11:53 AM 32.0 °F 18.6 °F 28.0 °F 85% 29.57 in 6.0 mi North 25.3 mph 35.7 mph N/A   Overcast
12:08 PM 30.9 °F 16.2 °F 28.0 °F 89% 29.55 in 2.0 mi North 29.9 mph 38.0 mph 0.00 in Snow Light Snow
12:22 PM 30.9 °F 17.5 °F 28.9 °F 92% 29.56 in 1.2 mi North 24.2 mph 39.1 mph 0.00 in Snow Light Snow
12:27 PM 30.9 °F 18.4 °F 28.9 °F 92% 29.56 in 1.0 mi North 20.7 mph 33.4 mph 0.00 in Snow Light Snow
12:35 PM 30.9 °F 16.9 °F 28.9 °F 92% 29.57 in 0.8 mi North 26.5 mph 32.2 mph 0.00 in Snow Light Snow
12:39 PM 30.9 °F 16.4 °F 28.9 °F 92% 29.57 in 1.0 mi North 28.8 mph 38.0 mph 0.00 in Snow Light Snow
12:46 PM 30.9 °F 16.7 °F 28.9 °F 92% 29.57 in 1.0 mi North 27.6 mph 38.0 mph 0.00 in Snow Light Snow
12:53 PM 30.9 °F 16.9 °F 28.9 °F 92% 29.60 in 0.8 mi North 26.5 mph 36.8 mph 0.00 in Snow Light Snow
12:58 PM 30.9 °F 15.7 °F 28.9 °F 92% 29.57 in 1.0 mi North 32.2 mph 41.4 mph 0.00 in Snow Light Snow
1:07 PM 30.9 °F 16.9 °F 28.9 °F 92% 29.58 in 1.0 mi North 26.5 mph 38.0 mph 0.00 in Snow Light Snow
1:12 PM 30.9 °F 17.5 °F 28.9 °F 92% 29.59 in 0.8 mi North 24.2 mph 34.5 mph 0.01 in Snow Light Snow
1:31 PM 30.0 °F 14.7 °F 28.9 °F 96% 29.60 in 0.2 mi North 31.1 mph 39.1 mph 0.01 in Fog , Snow Snow
1:53 PM 30.0 °F 14.0 °F 28.9 °F 96% 29.65 in 0.2 mi North 34.5 mph 42.6 mph 0.02 in Fog , Snow Snow
2:23 PM 30.0 °F 15.4 °F 28.9 °F 96% 29.63 in 0.5 mi North 27.6 mph 39.1 mph 0.01 in Fog , Snow Snow
2:32 PM 30.0 °F 14.5 °F 28.9 °F 96% 29.63 in 0.5 mi North 32.2 mph 38.0 mph 0.01 in Fog , Snow Snow
2:39 PM 30.0 °F 15.4 °F 28.9 °F 96% 29.63 in 0.2 mi North 27.6 mph 38.0 mph 0.01 in Fog , Snow Heavy Snow
2:48 PM 30.2 °F 15.7 °F 28.4 °F 93% 29.63 in 0.5 mi North 27.6 mph 38.0 mph 0.02 in Fog , Snow Snow
2:53 PM 30.0 °F 14.7 °F 28.9 °F 96% 29.67 in 0.2 mi North 31.1 mph 38.0 mph 0.02 in Fog , Snow Heavy Snow
3:35 PM 30.0 °F 15.7 °F 28.9 °F 96% 29.64 in 0.2 mi North 26.5 mph 40.3 mph 0.02 in Fog , Snow Heavy Snow
3:53 PM 30.0 °F 14.0 °F 28.9 °F 96% 29.69 in 0.2 mi North 34.5 mph 42.6 mph 0.03 in Fog , Snow Heavy Snow
4:53 PM 30.9 °F 17.5 °F 30.0 °F 96% 29.73 in 0.2 mi North 24.2 mph 34.5 mph 0.02 in Fog , Snow Snow
5:00 PM 30.9 °F 16.4 °F 30.0 °F 96% 29.69 in 0.2 mi North 28.8 mph 35.7 mph 0.00 in Fog , Snow Snow
5:50 PM 30.2 °F 14.3 °F 30.2 °F 100% 29.72 in 0.5 mi North 34.5 mph 41.4 mph 0.01 in Fog , Snow Snow
5:53 PM 30.9 °F 15.7 °F 30.0 °F 96% 29.78 in 0.5 mi NNW 32.2 mph 41.4 mph 0.01 in Fog , Snow Light Snow
6:31 PM 30.9 °F 15.5 °F 28.9 °F 92% 29.76 in 1.0 mi NNW 33.4 mph 40.3 mph 0.00 in Snow Light Snow
6:34 PM 30.9 °F 15.7 °F 28.0 °F 89% 29.76 in 1.2 mi NNW 32.2 mph 42.6 mph 0.00 in   Overcast
6:41 PM 30.9 °F 16.2 °F 28.0 °F 89% 29.77 in 2.0 mi NNW 29.9 mph 42.6 mph 0.00 in   Overcast
6:49 PM 30.2 °F 15.7 °F 28.4 °F 93% 29.78 in 3.0 mi NNW 27.6 mph 38.0 mph 0.00 in   Overcast
6:53 PM 30.9 °F 16.7 °F 28.0 °F 89% 29.84 in 3.0 mi NNW 27.6 mph 39.1 mph 0.00 in   Overcast
7:53 PM 30.9 °F 18.1 °F 28.0 °F 89% 29.89 in 10.0 mi NNW 21.9 mph 31.1 mph 0.00 in   Overcast
8:53 PM 32.0 °F 18.6 °F 28.9 °F 88% 29.95 in 10.0 mi NNW 25.3 mph 32.2 mph N/A   Overcast
9:53 PM 32.0 °F 18.4 °F 28.0 °F 85% 29.98 in 10.0 mi NNW 26.5 mph 32.2 mph N/A   Overcast
10:53 PM 30.9 °F 18.1 °F 28.0 °F 89% 30.00 in 9.0 mi North 21.9 mph 29.9 mph N/A   Scattered Clouds
11:09 PM 32.0 °F 20.1 °F 28.0 °F 85% 29.95 in 10.0 mi North 19.6 mph - N/A   Mostly Cloudy
11:53 PM 32.0 °F 18.9 °F 28.0 °F 85% 30.03 in 10.0 mi North 24.2 mph - N/A   Overcast